User: anonymous   Login
Location: Unspecified
(0.0000°N, 0.0000°E)
Time: 02:31:01
(UTC+00:00)
Language:

Snapshot - Orbit

View from above orbital plane
View from above orbital plane
View from above satellite
View from above satellite

Ground track
Ground track

The orbit data is extracted from the following two-line orbital elements,

1  1314U 65027A   17267.60743208 +.00000027 +00000-0 +75280-4 0  9997
2  1314 090.3031 287.5280 0029270 323.7101 151.8356 12.91750934219491
Epoch (UTC): 24 September 2017 14:34:42
Eccentricity: 0.0029270
inclination: 90.3031°
perigee height: 1272 km
apogee height: 1317 km
right ascension of ascending node: 287.5280°
argument of perigee: 323.7101°
revolutions per day: 12.91750934
mean anomaly at epoch: 151.8356°
orbit number at epoch: 21949

The dashed part of the orbit path shows where the satellite is in the earth's shadow,  

DLR